Location: Broletto
(44.6000°N, 10.5833°E)
Time: 01:02:36
(UTC+00:00)

SPOT 1/Viking Rocket - Pass Details

Date: 18 April 2021
Orbit: 777 x 794 km, 98.4° (Epoch: 08 May)

Event Time Altitude Azimuth Distance (km) Brightness Sun altitude
Exits shadow 19:58:13 34° 130° (SE) 1,292 4.1 -18.5°
Maximum altitude 20:00:16 55° 71° (ENE) 953 3.8 -18.7°
Drops below altitude 10° 20:05:22 10° 355° (N) 2,372 6.6 -19.5°
Sets 20:07:44 0° 351° (N) 3,305 7.6 -19.8°
